Date String (YYYY-MM-DD hh:mm:ss) UTC,Instrument flags,Ambient pressure (hPa),Sample flow (lpm),Bypass flow (lpm),Sample temperature (°C),Ambient temperature (°C),ASC tube jacket temperature (°C),LED temperature (°C),Box temperature (°C),Sample RH (%),Span deviation,Mass concentration (μg/m³),Mass concentration (μg/m³),Mass concentration (μg/m³)
DateTimeUTC,F1_M11,P_M11,Q1_M11,Q2_M11,T1_M11,T2_M11,T3_M11,T4_M11,T5_M11,U1_M11,ZSPAN_M11,X0_M11,X2_M11,X1_M11
2022-07-15 17:00:00,,,,,,,,,,,,,,
2022-07-15 17:01:00,,,,,,,,,,,,,,
2022-07-15 17:02:00,,,,,,,,,,,,,,
2022-07-15 17:03:00,,,,,,,,,,,,,,
2022-07-15 17:04:00,,,,,,,,,,,,,,
2022-07-15 17:05:00,,,,,,,,,,,,,,
2022-07-15 17:06:00,,,,,,,,,,,,0009.87,0004.81,0004.13
2022-07-15 17:06:32,,0832.2,4.98,0.00,29.3,27.3,00.0,38.0,31.1,30.1,0000.0,0009.87,0004.81,0004.13
2022-07-15 17:07:00,,0832.2,5.00,0.00,29.3,27.4,00.0,38.0,31.1,29.2,0000.0,0009.40,0004.85,0004.14
2022-07-15 17:08:00,,0832.2,5.00,0.00,29.3,27.6,00.0,38.0,31.1,29.8,0000.0,0009.24,0004.83,0004.14
2022-07-15 17:09:00,,0832.3,5.01,0.00,29.3,27.8,00.0,38.0,31.2,29.8,0000.0,0009.54,0004.86,0004.14
2022-07-15 17:10:00,,0832.3,4.99,0.00,29.3,28.0,00.0,38.0,31.3,29.5,0000.0,0009.93,0004.90,0004.15
2022-07-15 17:11:00,,0832.3,5.00,0.00,29.4,28.1,00.0,38.0,31.4,28.2,0000.0,0009.79,0004.92,0004.15
2022-07-15 17:12:00,,0832.3,5.00,0.00,29.4,27.8,00.0,38.0,31.3,28.4,0000.0,0010.15,0004.92,0004.13
2022-07-15 17:13:00,,0832.3,5.00,0.00,29.3,27.4,00.0,38.0,31.2,28.8,0000.0,0010.72,0004.91,0004.12
2022-07-15 17:14:00,,0832.2,4.99,0.00,29.3,27.3,00.0,38.0,31.2,28.6,0000.0,0010.78,0004.87,0004.10
2022-07-15 17:15:00,,0832.2,4.99,0.00,29.3,27.4,00.0,38.0,31.1,28.4,0000.0,0010.97,0004.84,0004.07
2022-07-15 17:16:00,,0832.1,5.01,0.00,29.3,27.6,00.0,38.0,31.2,27.6,0000.0,0010.95,0004.84,0004.05
2022-07-15 17:17:00,,0832.2,4.99,0.00,29.3,27.8,00.0,38.0,31.2,28.5,0000.0,0011.53,0004.81,0004.00
2022-07-15 17:18:00,,0832.2,5.01,0.00,29.3,28.0,00.0,38.0,31.3,29.0,0000.0,0011.73,0004.75,0003.98
2022-07-15 17:19:00,,0832.2,4.99,0.00,29.4,27.9,00.0,38.0,31.4,28.7,0000.0,0012.51,0004.77,0003.96
2022-07-15 17:20:00,,0832.1,5.01,0.00,29.3,27.4,00.0,37.9,31.3,28.5,0000.0,0012.34,0004.77,0003.96
2022-07-15 17:21:00,,0832.2,5.00,0.00,29.3,27.2,00.0,37.9,31.2,28.3,0000.0,0012.38,0004.75,0003.94
2022-07-15 17:22:00,,0832.1,5.00,0.00,29.3,27.2,00.0,37.9,31.1,28.4,0000.0,0012.50,0004.79,0003.94
2022-07-15 17:23:00,,0832.1,5.00,0.00,29.3,27.4,00.0,37.9,31.1,28.5,0000.0,0012.30,0004.79,0003.95
2022-07-15 17:24:00,,0832.1,4.99,0.00,29.3,27.5,00.0,38.0,31.1,28.6,0000.0,0012.04,0004.80,0003.95
2022-07-15 17:25:00,,0832.1,5.01,0.00,29.3,27.7,00.0,38.0,31.2,28.8,0000.0,0012.36,0004.81,0003.95
2022-07-15 17:26:00,,0832.1,4.99,0.00,29.3,27.9,00.0,38.0,31.2,28.5,0000.0,0012.28,0004.84,0003.96
2022-07-15 17:27:00,,0832.1,5.00,0.00,29.4,28.1,00.0,38.0,31.3,28.2,0000.0,0011.87,0004.78,0003.96
2022-07-15 17:28:00,,0832.1,5.00,0.00,29.4,28.0,00.0,38.0,31.4,28.2,0000.0,0011.54,0004.80,0004.00
2022-07-15 17:29:00,,0832.1,5.01,0.00,29.4,27.4,00.0,37.9,31.3,28.7,0000.0,0010.98,0004.82,0004.01
2022-07-15 17:30:00,,0832.1,5.00,0.00,29.3,27.1,00.0,37.9,31.2,29.4,0000.0,0011.43,0004.86,0004.03
2022-07-15 17:31:00,,0832.1,5.00,0.00,29.3,27.2,00.0,37.9,31.1,29.4,0000.0,0011.07,0004.81,0004.04
2022-07-15 17:32:00,,0832.1,5.00,0.00,29.3,27.3,00.0,37.9,31.1,29.3,0000.0,0010.57,0004.83,0004.05
2022-07-15 17:33:00,,0832.1,4.99,0.00,29.3,27.5,00.0,38.0,31.1,29.4,0000.0,0010.96,0004.84,0004.05
2022-07-15 17:34:00,,0832.0,5.00,0.00,29.3,27.7,00.0,38.0,31.2,29.7,0000.0,0011.33,0004.86,0004.06
2022-07-15 17:35:00,,0832.0,5.00,0.00,29.3,27.9,00.0,38.0,31.2,29.9,0000.0,0011.41,0004.90,0004.06
2022-07-15 17:36:00,,0832.0,5.00,0.00,29.3,28.1,00.0,38.0,31.3,30.1,0000.0,0010.95,0004.92,0004.08
2022-07-15 17:37:00,,0831.9,5.01,0.00,29.4,28.1,00.0,38.0,31.4,30.2,0000.0,0011.76,0004.94,0004.09
2022-07-15 17:38:00,,0832.0,5.00,0.00,29.4,27.5,00.0,38.0,31.3,30.2,0000.0,0012.66,0004.98,0004.11
2022-07-15 17:39:00,,0831.9,5.00,0.00,29.4,27.2,00.0,37.9,31.2,30.8,0000.0,0013.21,0005.00,0004.12
2022-07-15 17:40:00,,0832.0,5.00,0.00,29.3,27.2,00.0,37.9,31.1,30.7,0000.0,0013.20,0004.99,0004.12
2022-07-15 17:41:00,,0832.0,5.01,0.00,29.3,27.3,00.0,37.9,31.1,30.9,0000.0,0012.70,0004.99,0004.12
2022-07-15 17:42:00,,0832.0,4.99,0.00,29.3,27.5,00.0,38.0,31.1,31.0,0000.0,0012.96,0005.04,0004.14
2022-07-15 17:43:00,,0832.0,5.00,0.00,29.3,27.7,00.0,38.0,31.2,31.1,0000.0,0012.91,0005.05,0004.16
2022-07-15 17:44:00,,0832.0,4.99,0.00,29.3,27.9,00.0,38.0,31.3,31.6,0000.0,0013.06,0005.04,0004.17
2022-07-15 17:45:00,,0832.0,5.01,0.00,29.4,27.9,00.0,38.0,31.3,31.1,0000.0,0012.52,0005.04,0004.18
2022-07-15 17:46:00,,0831.9,5.00,0.00,29.3,27.3,00.0,37.9,31.2,31.2,0000.0,0012.87,0005.05,0004.19
2022-07-15 17:47:00,,0832.0,4.99,0.00,29.3,27.1,00.0,37.9,31.2,31.7,0000.0,0013.03,0005.05,0004.21
2022-07-15 17:48:00,,0831.9,5.00,0.00,29.3,27.1,00.0,37.9,31.1,31.9,0000.0,0012.43,0005.02,0004.20
2022-07-15 17:49:00,,0831.9,5.00,0.00,29.2,27.2,00.0,37.9,31.0,31.6,0000.0,0011.71,0005.06,0004.19
2022-07-15 17:50:00,,0831.8,5.00,0.00,29.2,27.4,00.0,37.9,31.0,31.2,0000.0,0011.73,0005.04,0004.19
2022-07-15 17:51:00,,0831.8,5.01,0.00,29.2,27.6,00.0,37.9,31.1,31.1,0000.0,0011.90,0005.08,0004.20
2022-07-15 17:52:00,,0831.7,4.99,0.00,29.3,27.8,00.0,38.0,31.2,30.9,0000.0,0013.72,0005.11,0004.21
2022-07-15 17:53:00,,0831.7,5.00,0.00,29.3,28.0,00.0,38.0,31.3,30.6,0000.0,0013.96,0005.11,0004.20
2022-07-15 17:54:00,,0831.7,5.00,0.00,29.3,28.0,00.0,38.0,31.3,30.7,0000.0,0014.01,0005.13,0004.20
2022-07-15 17:55:00,,0831.7,5.00,0.00,29.3,27.4,00.0,37.9,31.3,30.5,0000.0,0014.45,0005.15,0004.19
2022-07-15 17:56:00,,0831.7,5.00,0.00,29.3,27.1,00.0,37.9,31.2,30.8,0000.0,0014.50,0005.13,0004.18
2022-07-15 17:57:00,,0831.7,5.00,0.00,29.3,27.1,00.0,37.9,31.1,31.0,0000.0,0015.01,0005.10,0004.18
2022-07-15 17:58:00,,0831.7,5.00,0.00,29.2,27.2,00.0,37.9,31.0,30.6,0000.0,0015.56,0005.10,0004.17
2022-07-15 17:59:00,,0831.7,4.99,0.00,29.2,27.4,00.0,37.9,31.1,30.5,0000.0,0015.46,0005.09,0004.17
